Home > Weather > Geneva > Past weeks

Flag for Switzerland Weather for the Past 2 Weeks in Geneva, Geneva, Switzerland

Now
41 °F

Light rain. Broken clouds.


Feels Like: 39 °F
Forecast: 45 / 58 °F
Wind: 3 mph from East

Location: Geneva Cointrin Airport

Current Time: May 1, 2016 at 9:04:34 AM

Latest Report: May 1, 2016 at 8:20 AM


Visibility: N/A

Pressure: 30.04 "Hg

Humidity: 87%

Dew Point: 37 °F

Location of GenevaLocation

Historic Weather in Geneva — Graph

°F

Geneva Temperature Yesterday

Maximum temperature yesterday: 59 °F (at 12:50 PM)
Minimum temperature yesterday: 36 °F (at 6:20 AM)
Average temperature yesterday: 46 °F

High & Low Weather Summary for the Past Weeks

 TemperatureHumidityPressure
High70 °F (Apr 16, 4:50 PM)94% (Apr 16, 9:20 AM)30.30 "Hg (Apr 16, 9:20 AM)
Low32 °F (Apr 28, 2:50 AM)26% (Apr 28, 3:20 PM)29.62 "Hg (Apr 16, 7:50 PM)
Average49 °F66%29.99 "Hg
* Reported Apr 16 6:20 AM — May 1 6:20 AM, Geneva, Weather by CustomWeather, © 2016

Note: Actual official high and low records may vary slightly from our data, if they occured in-between our weather recording intervals... More about our weather records

Advertising

Geneva Weather History for the Previous 24 Hours

Scroll right to see more
 ConditionsComfort  
Time TempWeatherWind HumidityBarometerVisibility
6:20 AM
Sun, May 1
41 °FLight rain. Partly cloudy.1 mph93%30.01 "HgN/A
5:50 AM41 °FPassing clouds.3 mph93%30.01 "HgN/A
5:20 AM41 °FPartly cloudy.2 mph93%30.01 "HgN/A
4:20 AM41 °FMostly cloudy.3 mph93%30.01 "HgN/A
3:50 AM41 °FMostly cloudy.3 mph93%30.01 "HgN/A
2:50 AM41 °FLight rain. Mostly cloudy.5 mph93%30.01 "HgN/A
2:20 AM41 °FLight rain. Mostly cloudy.3 mph93%30.01 "HgN/A
1:50 AM43 °FLight rain. Mostly cloudy.3 mph93%30.01 "HgN/A
1:20 AM43 °FLight rain. Partly cloudy.3 mph93%30.01 "Hg6 mi
12:50 AM43 °FLight rain. Partly cloudy.2 mph93%30.01 "Hg6 mi
12:20 AM43 °FPassing clouds.1 mph87%30.01 "HgN/A
11:50 PM
Sat, Apr 30
43 °FPassing clouds.3 mph87%30.01 "HgN/A
10:50 PM43 °FPartly cloudy.3 mph93%30.04 "HgN/A
10:20 PM43 °FLight rain. Partly cloudy.3 mph93%30.04 "HgN/A
9:50 PM43 °FLight rain. Mostly cloudy.7 mph93%30.04 "HgN/A
9:20 PM43 °FLight rain. More clouds than sun.7 mph93%30.01 "HgN/A
8:50 PM45 °FLight rain. More clouds than sun.8 mph87%30.01 "Hg6 mi
8:20 PM45 °FLight rain. More clouds than sun.8 mph87%30.01 "Hg4 mi
7:50 PM45 °FRain. More clouds than sun.8 mph87%30.01 "Hg4 mi
7:20 PM45 °FRain. More clouds than sun.9 mph87%30.01 "HgN/A
6:50 PM46 °FLight rain. Broken clouds.12 mph87%30.01 "HgN/A
6:20 PM46 °FLight rain. Broken clouds.8 mph87%30.01 "HgN/A
5:50 PM48 °FRain. More clouds than sun.12 mph82%29.98 "Hg6 mi
5:20 PM48 °FLight rain. More clouds than sun.10 mph82%29.98 "HgN/A
4:50 PM48 °FLight rain. Broken clouds.12 mph82%30.01 "HgN/A
4:20 PM48 °FLight rain. Partly sunny.10 mph82%30.01 "HgN/A
3:50 PM50 °FLight rain. Partly sunny.10 mph76%29.98 "HgN/A
3:20 PM50 °FLight rain. Partly sunny.10 mph76%29.98 "HgN/A
2:50 PM52 °FSprinkles. Partly sunny.8 mph72%29.98 "HgN/A
2:20 PM54 °FSprinkles. Partly sunny.23 mph58%29.98 "HgN/A
1:50 PM59 °FSprinkles. Broken clouds.15 mph42%29.95 "HgN/A
1:20 PM57 °FPartly sunny.5 mph48%29.95 "HgN/A
12:50 PM59 °FBroken clouds.3 mph48%29.95 "HgN/A
12:20 PM57 °FBroken clouds.5 mph41%29.95 "HgN/A
11:50 AM55 °FBroken clouds.5 mph47%29.98 "HgN/A
11:20 AM54 °FBroken clouds.5 mph51%29.98 "HgN/A
10:20 AM54 °FBroken clouds.5 mph51%29.98 "HgN/A
9:50 AM52 °FBroken clouds.3 mph58%29.98 "HgN/A
9:20 AM50 °FSunny.3 mph62%30.01 "Hg10 mi
Weather by CustomWeather, © 2016

See weather overviewHow to use our weather pages